Location: *
(30.4476°N, 114.3798°E)
Time: 01:46:04
(UTC+00:00)

deb Chang Zheng 4 - Pass Details

Date: 09 April 2020
Orbit: 605 x 625 km, 98.6° (Epoch: 26 May)

Event Time Altitude Azimuth Distance (km) Brightness Sun altitude
Rises 19:51:01 0° 11° (N) 2,898 7.5 -27.2°
Reaches altitude 10° 19:53:12 10° 10° (N) 1,992 6.6 -26.8°
Enters shadow 19:56:32 53° 2° (N) 771 4.1 -26.2°
